Voltar ao catálogo

DELTA 1 DEB

LostSSO
NORAD 42572·DEBRIS·🇺🇸 United States

Lançado Nov 6, 1973 de Vandenberg Space Force Base

Loading…

Próximas Passagens (próximas 24 horas)

TLE

ObsoletoSource: Space-Track

Época: Jun 11, 2026, 06:08 UTC

1 42572U 73086HL  26162.25585172 -.00000014  00000-0  11642-3 0  9999
2 42572 101.8773 176.4751 0574327 324.3707  32.0270 12.54308472938509

Acompanhe DELTA 1 DEB em tempo real com AllMySat

Download on the App Store